Location: LDNL
(36.4545°S, 141.6685°E)
Time: 14:12:40
(UTC+11:00)

Courier 1B Rocket - Pass Details

Date: 01 February 2023
Orbit: 920 x 1202 km, 28.2° (Epoch: 25 March)

Event Time Altitude Azimuth Distance (km) Brightness Sun altitude
Rises 08:15:14 0° 290° (WNW) 4,101 7.6 15.8°
Reaches altitude 10° 08:18:14 10° 296° (WNW) 3,137 7.1 16.3°
Maximum altitude 08:25:36 45° 5° (N) 1,568 6.3 17.8°
Drops below altitude 10° 08:32:43 10° 75° (ENE) 3,035 9.0 19.2°
Sets 08:35:35 0° 80° (E) 3,957 9.5 19.8°
